This is the latest recevied weather packets stored in our database for station/object RK6MF-10. If no packets are shown the sender has not sent any weather packets the latest 10 day(s).
| Time | Temp. | Humidity | Pressure | Rain* | Wind** | Luminosity | Snow |
|---|---|---|---|---|---|---|---|
| 1777539392 | 12.78° C | 65% | 1016.3 hPa | - | - | - | - |
| 1777538492 | 13.33° C | 67% | 1016.5 hPa | - | - | - | - |
| 1777537592 | 12.78° C | 72% | 1016.4 hPa | - | - | - | - |
| 1777536692 | 13.33° C | 72% | 1016.6 hPa | - | - | - | - |
| 1777535791 | 12.22° C | 73% | 1016.5 hPa | - | - | - | - |
| 1777534891 | 11.67° C | 74% | 1016.5 hPa | - | - | - | - |
| 1777533991 | 12.78° C | 88% | 1016.6 hPa | - | - | - | - |
| 1777533091 | 11.11° C | 92% | 1016.5 hPa | - | - | - | - |
| 1777532191 | 11.67° C | 99% | 1016.5 hPa | - | - | - | - |
| 1777531291 | 11.11° C | 85% | 1016.4 hPa | - | - | - | - |
| 1777530391 | 10° C | 98% | 1016.1 hPa | - | - | - | - |
| 1777529491 | 8.33° C | 100% | 1016 hPa | - | - | - | - |
| 1777528591 | 8.33° C | 100% | 1015.9 hPa | - | - | - | - |
| 1777527690 | 7.22° C | 100% | 1015.7 hPa | - | - | - | - |
| 1777526790 | 6.11° C | 100% | 1015.8 hPa | - | - | - | - |
| 1777525890 | 6.11° C | 100% | 1015.9 hPa | - | - | - | - |
| 1777524990 | 5.56° C | 100% | 1015.6 hPa | - | - | - | - |
| 1777524090 | 5.56° C | 100% | 1016.1 hPa | - | - | - | - |
| 1777523190 | 5° C | 100% | 1016 hPa | - | - | - | - |
| 1777522290 | 5.56° C | 100% | 1016 hPa | - | - | - | - |
| 1777520492 | 5.56° C | 100% | 1016 hPa | - | - | - | - |
| 1777519592 | 6.11° C | 100% | 1015.8 hPa | - | - | - | - |
| 1777518692 | 6.11° C | 100% | 1015.8 hPa | - | - | - | - |
| 1777517792 | 6.11° C | 100% | 1015.7 hPa | - | - | - | - |
| 1777516892 | 6.11° C | 100% | 1015.6 hPa | - | - | - | - |
* Rain since midnight (hover to see other rain measurements)
** Current wind speed in m/s (hover to see current wind gust speed)